Location: Les Jeannots
(43.2262°N, 5.5774°E)
Time: 19:14:53
(UTC+00:00)

SPOT 5 - Pass Details

Date: 05 July 2020
Orbit: 622 x 815 km, 98.3° (Epoch: 12 August)

Event Time Altitude Azimuth Distance (km) Brightness Sun altitude
Exits shadow 21:13:53 25° 159° (SSE) 1,512 3.9 -15.8°
Maximum altitude 21:16:56 80° 75° (ENE) 760 2.9 -16.1°
Drops below altitude 10° 21:21:47 10° 349° (N) 2,203 6.4 -16.6°
Sets 21:23:59 0° 348° (NNW) 3,096 7.5 -16.8°
